{"data":{"norad_id":64861,"intl_designator":"2025-152V","name":"STARLINK-34651","alt_names":[],"object_type":"PAYLOAD","status":"ACTIVE","operator":null,"country":"US","launch_date":"2025-07-19","launch_site_code":"AFWTR","launch_vehicle":null,"mission":null,"orbit_class":"UNKNOWN","rcs_meters":null,"size_class":null,"mass_kg":null,"dimensions":null,"purposes":["comms"],"wikipedia_slug":null,"has_3d_model":false,"image_url":null,"decayed_at":null,"tle_current":{"epoch":"2026-05-25T02:24:27.165024Z","epoch_age_seconds":76937,"freshness":"FRESH","line1":"1 64861U 25152V   26145.10031441  .00004626  00000+0  32436-3 0  9990","line2":"2 64861  97.4517   0.4445 0002065  86.7826 273.3638 15.05661941 46917","mean_motion":15.05661941,"eccentricity":0.0002065,"inclination_deg":97.4517,"raan_deg":0.4445,"arg_perigee_deg":86.7826,"mean_anomaly_deg":273.3638,"bstar":0.00032436,"rev_number":4691,"period_min":95.638998422422,"perigee_km":548.04397466732,"apogee_km":550.90507822774,"semimajor_km":6927.6115264475,"source":"CELESTRAK","updated_at":"2026-05-25T13:38:20.616733Z"}}}